Wind_Speed
26 26 25 24 24 24 24 23 21 19 18 16 16 16 16 15 14 13 12 11 11 10 10 10 10 9 10 10 10 10 10 11 11 12 12 12 12 12 12 12 12 11 12 11
26 26 27 26 25 25 24 23 22 21 18 17 17 16 16 15 14 13 13 12 12 11 10 10 10 10 10 10 10 10 9 10 11 11 12 11 12 12 12 13 12 12 12 12
28 27 28 29 26 25 24 24 23 21 19 18 17 16 15 15 14 14 13 13 12 12 11 11 10 11 11 11 11 10 10 11 11 11 11 11 11 12 12 13 13 12 12 12
30 29 30 28 26 26 26 24 23 22 21 19 17 16 16 15 15 14 14 13 12 11 11 11 11 11 11 11 11 11 12 12 12 12 11 11 12 13 13 13 13 13 13 13
30 31 30 28 27 27 27 25 24 23 22 21 19 18 16 16 15 15 14 14 12 11 11 11 11 11 11 11 12 12 12 13 13 13 12 12 12 13 13 13 13 13 14 14
30 30 29 26 26 27 27 26 24 24 23 22 20 19 17 17 17 16 15 14 13 13 12 12 12 11 11 12 12 12 13 14 14 14 14 13 12 13 14 14 14 14 14 13
31 30 28 26 26 27 27 25 24 23 23 22 21 19 19 19 18 18 17 16 15 14 14 13 13 13 12 12 12 13 14 14 14 14 14 14 14 14 14 15 14 14 14 14
31 30 27 26 27 28 26 25 25 24 23 23 21 20 20 20 20 19 18 18 17 16 15 15 14 14 13 13 13 13 14 14 15 15 15 14 14 14 15 16 15 15 15 16
33 30 27 27 28 28 27 26 25 25 24 24 23 22 22 21 21 21 20 20 19 18 16 16 16 15 14 14 14 13 13 14 14 15 15 15 15 15 15 15 16 16 16 16
31 30 30 29 28 28 29 28 27 26 26 25 24 23 24 23 22 21 21 21 20 19 18 17 17 17 16 16 16 15 14 14 14 15 15 16 16 16 15 15 16 16 16 16
32 30 30 29 30 29 29 29 28 27 27 26 26 25 25 24 22 22 21 21 21 20 19 18 18 18 18 17 17 16 16 16 16 16 16 16 16 16 16 17 17 16 16 16
32 32 32 29 29 30 29 28 27 27 27 26 26 25 25 25 24 22 22 22 21 21 20 20 19 19 19 18 17 17 17 16 16 17 17 16 16 17 16 17 17 17 17 17
31 32 32 29 28 29 28 27 27 28 28 27 26 25 25 25 24 23 22 22 22 21 21 21 20 20 19 19 18 17 17 17 17 16 17 17 17 17 17 17 17 17 18 18
31 31 31 29 28 28 29 28 27 28 30 29 27 26 26 25 25 24 23 22 22 22 22 21 21 21 21 20 19 19 18 18 18 17 17 17 17 18 18 18 19 19 19 19
31 31 31 30 29 29 29 28 27 28 30 30 29 28 27 26 26 25 25 24 24 23 23 22 22 22 21 21 21 21 20 20 19 19 19 19 18 19 19 20 20 20 20 20
32 32 31 31 30 29 29 29 29 28 30 31 30 29 28 27 27 26 26 25 25 24 24 23 22 23 22 22 22 22 22 22 21 21 20 20 20 20 20 21 21 21 21 21
34 33 32 30 29 30 30 29 29 29 29 30 30 29 29 29 28 27 27 26 26 26 25 24 24 23 23 23 23 23 22 22 22 22 22 21 21 21 21 21 22 22 23 23
33 32 32 31 30 30 30 30 30 30 30 29 30 30 29 28 28 27 27 27 27 27 26 26 25 24 24 24 24 24 24 23 23 23 23 22 22 23 22 22 22 22 22 23
31 31 31 31 30 30 30 30 30 30 30 30 30 30 29 29 28 28 27 27 28 27 26 26 25 25 25 25 26 25 25 25 25 25 24 24 24 24 24 23 23 23 23 23
29 29 30 30 30 30 30 30 30 30 30 30 30 30 30 30 29 28 28 27 27 27 27 27 27 26 26 26 26 27 26 26 25 25 25 25 25 25 24 24 24 24 24 24
28 28 29 30 30 30 29 30 30 30 30 29 30 30 31 31 30 29 28 29 28 28 28 28 27 27 27 27 26 26 26 25 26 26 26 26 26 26 26 26 26 26 26 26
26 27 27 29 29 28 28 29 29 29 29 29 29 30 30 31 31 29 29 29 28 28 28 28 28 27 28 28 27 27 26 26 27 27 27 27 28 28 28 28 28 28 28 27
25 25 26 27 26 27 27 27 28 28 28 29 29 29 29 29 30 30 29 29 29 28 29 29 29 28 28 29 29 29 28 28 28 29 29 29 29 29 29 29 29 29 28 28
24 24 25 26 26 26 26 27 27 27 28 29 30 30 29 30 30 29 29 29 29 28 29 29 30 30 30 30 29 30 30 30 30 30 30 30 31 31 31 30 29 29 29 29
25 25 25 26 27 26 26 27 27 27 28 29 30 31 31 30 30 30 30 29 29 29 29 29 30 30 29 29 30 30 30 31 31 31 31 31 32 32 31 31 30 29 29 29
25 26 26 26 27 26 26 26 28 28 28 29 29 30 30 30 30 30 29 29 29 29 29 30 30 30 29 29 30 31 31 31 31 31 32 32 31 31 31 31 31 31 31 31
24 25 26 26 26 26 27 27 28 28 28 28 28 28 29 29 30 30 30 30 29 29 30 30 30 30 30 30 30 31 30 30 30 30 30 30 30 31 31 31 31 31 31 31
Wind_Direction
245 243 242 243 245 247 250 254 257 258 260 259 262 265 267 268 268 265 263 263 262 262 261 256 250 248 243 240 239 239 238 235 234 230 228 232 231 227 228 229 231 234 237 237
245 244 243 244 244 246 248 251 255 257 258 258 259 260 263 264 265 263 259 259 258 260 261 254 248 244 241 243 239 239 238 234 230 230 228 229 231 232 230 231 233 238 240 240
247 246 244 243 244 246 248 249 252 255 257 257 257 258 260 260 260 260 256 256 256 259 258 254 249 244 242 242 240 237 235 232 230 230 228 230 233 232 231 231 233 237 240 241
248 246 246 245 244 246 248 249 252 254 253 254 255 255 256 257 257 256 254 254 255 254 253 249 246 247 247 242 240 236 234 233 233 232 232 234 234 232 234 234 236 240 244 247
248 248 247 245 245 246 246 247 249 251 252 252 251 251 252 254 253 252 251 248 249 252 254 250 245 246 247 243 241 239 236 236 237 236 235 236 237 237 238 238 240 242 245 247
247 248 248 246 246 246 247 245 246 248 250 250 248 248 248 249 249 249 249 246 246 250 253 250 246 246 248 245 243 241 241 240 239 238 238 238 239 240 240 241 242 244 245 248
247 249 248 245 245 245 246 246 245 246 248 250 249 246 245 245 244 245 246 246 247 248 250 250 247 246 249 249 244 242 241 240 239 240 238 238 241 243 242 243 246 248 248 251
247 248 247 245 244 245 247 247 245 245 247 247 246 243 243 244 243 243 244 246 248 248 246 246 246 245 248 248 247 245 242 243 244 243 241 242 244 245 246 246 248 251 253 256
247 247 246 246 246 246 247 245 245 245 245 244 243 243 243 243 243 243 244 245 246 248 245 244 244 243 244 246 247 247 246 247 246 245 245 245 246 246 248 249 250 253 256 257
247 245 245 246 245 246 247 247 245 243 242 241 241 241 241 241 241 241 243 244 245 247 246 244 243 242 243 244 245 247 251 253 250 247 247 246 248 248 249 251 252 254 256 257
245 244 245 244 243 244 246 246 243 241 240 239 239 239 239 239 240 241 241 243 244 245 244 243 243 242 242 245 247 248 251 254 255 251 249 248 250 251 252 252 253 253 255 259
246 243 242 242 243 245 246 245 243 239 238 238 238 239 240 239 239 240 240 241 242 242 242 242 242 241 242 246 249 250 251 253 255 254 250 249 250 250 251 252 252 253 256 260
244 242 241 242 244 244 244 244 243 239 236 236 237 238 240 239 238 238 239 240 242 242 242 242 242 241 242 244 247 250 251 251 253 252 250 249 250 251 252 253 256 257 260 262
242 242 242 241 240 241 242 242 242 238 235 234 235 236 238 238 238 237 237 239 241 241 242 242 242 241 242 242 244 247 249 251 252 253 252 252 254 253 254 256 259 261 263 264
242 242 243 240 238 239 240 240 239 238 236 235 235 235 237 239 237 236 237 239 241 241 241 242 242 242 242 243 245 247 249 250 251 253 254 256 258 258 258 258 259 260 263 265
240 241 241 241 240 238 239 238 238 237 235 235 234 235 238 237 236 236 237 239 239 240 241 242 244 244 243 244 247 249 249 249 250 252 254 255 257 259 260 260 259 260 262 264
240 239 239 240 239 238 239 238 238 236 233 233 235 236 237 237 236 237 237 238 239 240 241 242 244 243 243 245 247 248 249 249 250 252 254 256 257 259 261 261 261 263 265 265
239 238 238 238 238 239 239 238 237 235 234 234 235 237 236 234 235 236 238 239 240 240 240 241 243 244 244 245 247 248 250 251 251 252 254 255 256 259 260 260 262 265 266 266
239 240 239 237 238 238 239 238 236 235 235 236 237 236 235 234 235 236 237 238 239 240 239 241 243 245 247 247 248 248 249 251 252 253 254 255 256 258 259 261 264 265 267 267
241 240 239 237 238 238 237 237 235 234 234 234 235 235 235 235 235 236 237 237 238 239 241 243 245 246 246 248 249 249 249 250 252 254 254 256 257 258 259 261 264 266 266 266
242 241 240 239 240 239 236 235 235 234 234 234 234 235 233 234 235 235 236 236 236 238 242 245 247 247 247 249 249 249 249 251 253 255 256 256 257 258 260 261 263 265 267 266
243 241 240 238 238 236 235 235 234 234 235 234 234 233 234 235 234 234 236 238 238 240 244 246 247 248 249 250 250 250 250 251 254 256 258 259 259 259 260 261 263 264 266 266
239 238 238 236 234 234 234 234 234 234 232 231 231 232 234 235 235 236 238 240 241 242 244 246 247 247 248 250 251 251 252 254 256 258 259 259 259 260 261 262 263 264 266 267
236 235 235 234 234 234 234 234 233 232 231 230 231 233 234 236 237 239 240 241 242 243 245 246 247 248 250 251 252 253 254 255 257 259 259 260 260 261 262 264 265 266 266 267
237 236 235 235 235 233 232 231 230 230 229 230 232 234 235 236 237 240 242 243 244 245 246 248 248 249 250 252 253 254 255 257 258 259 259 260 261 261 262 264 265 266 266 267
237 236 234 234 234 233 231 232 231 229 230 230 232 234 236 236 238 240 242 244 246 247 247 249 249 249 251 254 255 255 256 257 258 259 260 260 260 261 262 263 264 265 266 268
237 237 236 235 234 233 232 232 232 231 231 231 233 235 236 237 238 240 242 244 246 248 249 250 251 252 252 255 256 255 255 256 257 260 261 261 262 263 262 262 263 265 267 268
Height
5785 5788 5791 5794 5796 5798 5800 5802 5804 5806 5807 5810 5810 5810 5811 5811 5810 5810 5811 5811 5811 5811 5811 5811 5812 5813 5813 5814 5815 5816 5817 5818 5820 5821 5823 5824 5825 5827 5829 5830 5832 5834 5835 5836
5778 5781 5783 5786 5790 5792 5794 5796 5798 5800 5803 5804 5805 5806 5806 5806 5807 5807 5807 5807 5808 5808 5808 5809 5809 5810 5811 5812 5813 5814 5815 5816 5817 5819 5820 5822 5823 5825 5826 5828 5830 5831 5833 5834
5770 5773 5775 5778 5783 5786 5788 5791 5793 5794 5798 5799 5800 5801 5802 5802 5802 5803 5803 5804 5804 5805 5805 5806 5807 5807 5808 5809 5810 5811 5813 5814 5815 5817 5818 5819 5821 5822 5824 5825 5827 5829 5830 5831
5763 5766 5767 5775 5777 5780 5782 5784 5787 5789 5791 5793 5795 5796 5797 5798 5798 5799 5800 5800 5801 5802 5802 5803 5804 5805 5805 5806 5807 5809 5810 5812 5813 5814 5816 5817 5818 5820 5821 5823 5824 5826 5827 5828
5755 5757 5761 5767 5770 5772 5774 5778 5781 5783 5785 5787 5789 5791 5792 5793 5793 5795 5796 5797 5798 5799 5799 5800 5801 5801 5803 5804 5805 5806 5808 5809 5811 5812 5813 5814 5816 5817 5818 5820 5821 5823 5824 5825
5747 5749 5753 5761 5763 5765 5768 5771 5775 5776 5779 5781 5783 5786 5788 5788 5789 5790 5792 5793 5794 5795 5796 5797 5798 5799 5800 5801 5802 5803 5805 5806 5807 5809 5810 5812 5813 5814 5816 5817 5818 5819 5820 5822
5740 5742 5746 5753 5755 5757 5761 5766 5769 5770 5773 5775 5777 5780 5782 5783 5784 5786 5787 5789 5790 5791 5792 5793 5794 5795 5796 5797 5799 5800 5802 5803 5804 5805 5807 5808 5810 5811 5812 5813 5814 5815 5817 5818
5732 5735 5742 5746 5748 5750 5754 5758 5761 5763 5766 5768 5771 5773 5775 5777 5779 5781 5783 5784 5786 5787 5788 5790 5791 5792 5793 5794 5795 5797 5798 5800 5801 5802 5803 5805 5806 5807 5809 5810 5811 5812 5813 5814
5726 5731 5735 5737 5740 5743 5747 5750 5753 5756 5759 5761 5764 5767 5769 5771 5773 5775 5777 5779 5781 5782 5784 5785 5787 5788 5789 5791 5792 5793 5795 5796 5797 5798 5799 5801 5802 5804 5805 5806 5807 5808 5809 5810
5718 5723 5726 5729 5732 5735 5739 5742 5745 5748 5751 5754 5757 5760 5763 5765 5767 5770 5772 5774 5776 5777 5779 5781 5782 5784 5785 5787 5788 5790 5791 5792 5793 5795 5796 5797 5798 5800 5801 5802 5803 5804 5805 5805
5709 5714 5718 5721 5724 5727 5730 5734 5737 5740 5744 5747 5750 5753 5756 5759 5761 5764 5766 5768 5770 5772 5774 5776 5777 5779 5781 5782 5784 5786 5787 5788 5789 5790 5791 5793 5794 5795 5796 5797 5798 5800 5800 5801
5702 5706 5709 5713 5716 5719 5723 5726 5730 5733 5736 5739 5743 5746 5749 5752 5755 5757 5760 5762 5764 5766 5769 5770 5772 5774 5776 5777 5779 5781 5782 5783 5785 5786 5787 5788 5789 5791 5791 5793 5794 5794 5795 5796
5694 5697 5701 5705 5708 5711 5715 5718 5722 5725 5729 5732 5736 5739 5742 5745 5748 5751 5754 5756 5758 5761 5763 5765 5767 5769 5771 5772 5774 5776 5777 5778 5780 5781 5783 5784 5785 5786 5787 5788 5789 5789 5790 5791
5685 5689 5692 5697 5700 5704 5707 5710 5713 5717 5721 5725 5729 5732 5735 5738 5741 5744 5747 5750 5752 5755 5757 5759 5761 5763 5765 5767 5769 5771 5772 5773 5775 5776 5778 5779 5780 5781 5782 5783 5784 5784 5785 5785
5677 5681 5685 5688 5692 5696 5699 5702 5706 5709 5713 5717 5721 5724 5728 5731 5734 5737 5741 5743 5746 5748 5751 5753 5755 5757 5759 5761 5763 5765 5767 5768 5769 5771 5772 5773 5774 5775 5776 5777 5778 5779 5779 5779
5669 5673 5677 5680 5684 5688 5691 5694 5698 5702 5705 5709 5713 5717 5720 5724 5727 5730 5734 5736 5739 5742 5744 5747 5749 5751 5753 5755 5757 5759 5761 5762 5764 5765 5767 5768 5769 5770 5770 5771 5772 5772 5773 5773
5661 5665 5668 5672 5676 5679 5683 5687 5690 5694 5697 5701 5705 5709 5712 5716 5719 5723 5726 5729 5732 5735 5738 5740 5742 5744 5747 5749 5751 5753 5754 5756 5758 5759 5760 5762 5763 5764 5764 5765 5765 5766 5766 5766
5653 5656 5660 5664 5667 5671 5674 5678 5682 5686 5690 5694 5697 5701 5705 5709 5712 5715 5718 5722 5725 5728 5730 5733 5735 5738 5740 5742 5744 5746 5748 5749 5751 5753 5754 5755 5756 5757 5757 5758 5759 5759 5759 5759
5644 5648 5651 5654 5658 5662 5666 5669 5673 5677 5681 5685 5689 5693 5697 5701 5704 5707 5711 5714 5717 5720 5723 5725 5728 5730 5733 5735 5737 5739 5741 5742 5744 5745 5747 5748 5749 5750 5750 5751 5752 5752 5752 5752
5637 5640 5643 5646 5650 5654 5657 5661 5665 5669 5673 5677 5681 5685 5689 5693 5696 5700 5703 5707 5710 5713 5715 5718 5720 5722 5725 5727 5729 5731 5733 5734 5736 5737 5739 5740 5741 5742 5743 5744 5744 5744 5745 5745
5630 5632 5635 5639 5642 5646 5649 5653 5657 5661 5665 5669 5673 5677 5681 5685 5689 5692 5696 5699 5702 5705 5708 5710 5712 5715 5717 5719 5721 5723 5725 5726 5728 5729 5731 5732 5733 5734 5735 5736 5736 5736 5737 5737
5623 5626 5629 5632 5635 5638 5642 5646 5650 5653 5657 5661 5665 5669 5673 5677 5681 5684 5688 5691 5694 5697 5700 5702 5704 5707 5709 5711 5713 5715 5716 5718 5720 5721 5722 5723 5724 5725 5726 5727 5727 5728 5728 5728
5616 5619 5622 5625 5629 5632 5635 5639 5642 5646 5650 5654 5658 5662 5666 5669 5673 5677 5680 5683 5686 5689 5692 5694 5696 5698 5700 5702 5704 5706 5708 5709 5711 5712 5713 5714 5715 5716 5717 5717 5718 5718 5718 5719
5610 5613 5616 5619 5622 5626 5629 5632 5636 5639 5643 5647 5651 5655 5658 5662 5665 5669 5672 5675 5678 5680 5683 5685 5687 5689 5691 5693 5695 5697 5698 5700 5701 5702 5703 5704 5705 5705 5706 5707 5707 5708 5708 5709
5605 5607 5610 5613 5616 5619 5623 5626 5629 5633 5637 5640 5644 5647 5650 5654 5657 5661 5664 5667 5669 5672 5674 5676 5678 5680 5682 5684 5685 5687 5688 5689 5691 5691 5692 5693 5694 5695 5696 5696 5697 5698 5698 5699
5599 5602 5605 5607 5610 5613 5616 5620 5623 5627 5630 5633 5637 5640 5643 5646 5649 5653 5656 5658 5661 5663 5665 5667 5669 5671 5673 5674 5676 5677 5678 5679 5680 5681 5682 5683 5684 5684 5685 5686 5687 5688 5688 5689
5593 5596 5599 5601 5604 5607 5610 5613 5617 5620 5623 5626 5629 5632 5635 5638 5642 5645 5647 5650 5652 5655 5657 5658 5660 5662 5663 5665 5666 5667 5669 5669 5670 5671 5672 5673 5673 5674 5675 5675 5676 5677 5678 5678